sat.trackr.live / text

‹ back to catalog

STARLINK-32486

NORAD 61854 · 2024-202K

PAYLOAD ACTIVE UNKNOWN

§ Identity

Operator
Country
US
Launch date
2024-11-07
Launch site
AFETR
Launch vehicle
Mass (kg)
RCS (m²)

Purposes: comms

External: N2YO · Heavens-Above · Gunter

§ Orbital elements

Epoch: 2026-05-25T01:59:57.628896Z

Period
94.27 min
Inclination
43.0012°
Eccentricity
0.0000939
Mean motion
15.27578015 rev/d
Perigee alt
482.4 km
Apogee alt
483.7 km
Semi-major
6,861.2 km
B*
-4.5149e-5
RAAN
166.3351°
Arg perigee
267.4489°
Mean anomaly
92.6255°
Rev number
8,702

§ Raw data

STARLINK-324861 61854U 24202K   26145.08330589 -.00001504  00000+0 -45149-4 0  99962 61854  43.0012 166.3351 0000939 267.4489  92.6255 15.27578015 87029

JSON: /api/v1/satellites/61854 · /tle

For live sub-satellite position, see the globe view (requires WebGL).

§ Visibility from observer

Set your observer location to see the next 7 days of passes ≥ 10°. The values pass through the URL so the page stays shareable.

No JS? Fill the form by hand. The geolocation button needs JavaScript.